TimeEST,TemperatureF,Dew PointF,Humidity,Sea Level PressureIn,VisibilityMPH,Wind Direction,Wind SpeedMPH,Gust SpeedMPH,PrecipitationIn,Events,Conditions,WindDirDegrees,DateUTC
12:35 AM,-9999,-9999,N/A,29.84,9.0,ESE,9.2,-,N/A,,Overcast,120,2013-12-03 05:35:00
12:55 AM,-9999,-9999,N/A,29.84,10.0,ESE,10.4,-,N/A,,Overcast,120,2013-12-03 05:55:00
1:15 AM,-9999,-9999,N/A,29.83,10.0,ESE,10.4,-,N/A,,Overcast,110,2013-12-03 06:15:00
1:35 AM,-9999,-9999,N/A,29.83,10.0,SE,9.2,-,N/A,,Overcast,130,2013-12-03 06:35:00
1:55 AM,-9999,-9999,N/A,29.83,10.0,ESE,9.2,-,N/A,,Overcast,120,2013-12-03 06:55:00
2:15 AM,-9999,-9999,N/A,29.82,10.0,ESE,8.1,-,N/A,,Overcast,120,2013-12-03 07:15:00
2:35 AM,-9999,-9999,N/A,29.83,10.0,ESE,8.1,-,N/A,,Overcast,120,2013-12-03 07:35:00
2:55 AM,-9999,-9999,N/A,29.83,10.0,ESE,9.2,-,N/A,,Overcast,120,2013-12-03 07:55:00
3:15 AM,-9999,-9999,N/A,29.83,7.0,ESE,9.2,-,N/A,,Overcast,120,2013-12-03 08:15:00
3:35 AM,-9999,-9999,N/A,29.82,10.0,ESE,9.2,-,N/A,,Overcast,120,2013-12-03 08:35:00
3:55 AM,-9999,-9999,N/A,29.82,10.0,ESE,8.1,-,N/A,,Overcast,110,2013-12-03 08:55:00
4:15 AM,-9999,-9999,N/A,29.82,8.0,ESE,9.2,-,N/A,,Overcast,120,2013-12-03 09:15:00
4:35 AM,-9999,-9999,N/A,29.82,7.0,ESE,8.1,-,N/A,,Overcast,110,2013-12-03 09:35:00
4:55 AM,-9999,-9999,N/A,29.82,4.0,ESE,9.2,-,N/A,,Overcast,120,2013-12-03 09:55:00
5:15 AM,-9999,-9999,N/A,29.81,8.0,ESE,10.4,-,N/A,,Overcast,120,2013-12-03 10:15:00
5:35 AM,-9999,-9999,N/A,29.79,10.0,ESE,10.4,-,N/A,,Overcast,110,2013-12-03 10:35:00
5:55 AM,-9999,-9999,N/A,29.79,9.0,ESE,12.7,-,N/A,,Overcast,120,2013-12-03 10:55:00
6:15 AM,-9999,-9999,N/A,29.80,9.0,SE,11.5,-,N/A,,Overcast,130,2013-12-03 11:15:00
6:35 AM,-9999,-9999,N/A,29.81,8.0,ESE,10.4,-,N/A,,Overcast,120,2013-12-03 11:35:00
6:55 AM,-9999,-9999,N/A,29.81,7.0,ESE,10.4,-,N/A,,Overcast,120,2013-12-03 11:55:00
7:15 AM,-9999,-9999,N/A,29.81,2.5,SE,9.2,-,N/A,,Overcast,130,2013-12-03 12:15:00
7:35 AM,-9999,-9999,N/A,29.81,3.0,ESE,10.4,-,N/A,,Overcast,120,2013-12-03 12:35:00
7:55 AM,-9999,-9999,N/A,29.81,4.0,SE,6.9,-,N/A,,Overcast,130,2013-12-03 12:55:00
8:15 AM,-9999,-9999,N/A,29.81,5.0,SE,8.1,-,N/A,,Overcast,130,2013-12-03 13:15:00
8:35 AM,-9999,-9999,N/A,29.81,4.0,ESE,10.4,-,N/A,,Overcast,120,2013-12-03 13:35:00
8:55 AM,-9999,-9999,N/A,29.82,4.0,ESE,8.1,-,N/A,,Overcast,120,2013-12-03 13:55:00
9:15 AM,-9999,-9999,N/A,29.82,3.0,SE,9.2,-,N/A,,Overcast,130,2013-12-03 14:15:00
9:35 AM,-9999,-9999,N/A,29.82,3.0,SE,9.2,-,N/A,,Overcast,130,2013-12-03 14:35:00
9:55 AM,-9999,-9999,N/A,29.81,2.0,SE,11.5,-,N/A,,Overcast,130,2013-12-03 14:55:00
10:15 AM,-9999,-9999,N/A,29.81,2.0,SE,10.4,-,N/A,,Overcast,140,2013-12-03 15:15:00
10:35 AM,-9999,-9999,N/A,29.83,2.0,SE,10.4,-,N/A,,Overcast,140,2013-12-03 15:35:00
10:55 AM,-9999,-9999,N/A,29.83,2.0,SSE,8.1,-,N/A,,Overcast,150,2013-12-03 15:55:00
11:15 AM,-9999,-9999,N/A,29.83,2.0,SE,8.1,-,N/A,,Overcast,140,2013-12-03 16:15:00
11:35 AM,-9999,-9999,N/A,29.83,2.0,SSE,6.9,-,N/A,,Overcast,160,2013-12-03 16:35:00
11:55 AM,-9999,-9999,N/A,29.82,2.0,SE,5.8,-,N/A,,Overcast,140,2013-12-03 16:55:00
12:15 PM,-9999,-9999,N/A,29.81,1.8,SE,8.1,-,N/A,,Overcast,140,2013-12-03 17:15:00
12:35 PM,-9999,-9999,N/A,29.80,2.0,SSE,6.9,-,N/A,,Overcast,150,2013-12-03 17:35:00
12:55 PM,-9999,-9999,N/A,29.81,2.0,SE,5.8,-,N/A,,Overcast,140,2013-12-03 17:55:00
1:15 PM,-9999,-9999,N/A,29.80,2.0,SSE,5.8,-,N/A,,Overcast,150,2013-12-03 18:15:00
1:35 PM,-9999,-9999,N/A,29.79,2.0,SE,6.9,-,N/A,,Overcast,140,2013-12-03 18:35:00
1:55 PM,-9999,-9999,N/A,29.79,2.0,SE,6.9,-,N/A,,Overcast,140,2013-12-03 18:55:00
2:15 PM,-9999,-9999,N/A,29.78,2.0,SE,8.1,-,N/A,,Overcast,130,2013-12-03 19:15:00
2:35 PM,-9999,-9999,N/A,29.78,2.0,SE,6.9,-,N/A,,Overcast,140,2013-12-03 19:35:00
2:55 PM,-9999,-9999,N/A,29.78,2.0,SSE,6.9,-,N/A,,Overcast,150,2013-12-03 19:55:00
3:15 PM,-9999,-9999,N/A,29.78,2.0,SSE,9.2,-,N/A,,Overcast,150,2013-12-03 20:15:00
3:35 PM,-9999,-9999,N/A,29.77,2.0,SE,8.1,-,N/A,,Overcast,140,2013-12-03 20:35:00
3:55 PM,-9999,-9999,N/A,29.77,2.0,SSE,8.1,-,N/A,,Overcast,150,2013-12-03 20:55:00
4:15 PM,-9999,-9999,N/A,29.77,2.0,SE,6.9,-,N/A,,Overcast,140,2013-12-03 21:15:00
4:35 PM,-9999,-9999,N/A,29.77,2.0,SE,8.1,-,N/A,,Scattered Clouds,140,2013-12-03 21:35:00
4:55 PM,-9999,-9999,N/A,29.78,2.0,SE,5.8,-,N/A,,Mostly Cloudy,140,2013-12-03 21:55:00
5:15 PM,-9999,-9999,N/A,29.78,3.0,SE,5.8,-,N/A,,Overcast,130,2013-12-03 22:15:00
5:35 PM,-9999,-9999,N/A,29.77,3.0,SE,6.9,-,N/A,,Overcast,130,2013-12-03 22:35:00
5:55 PM,-9999,-9999,N/A,29.77,2.5,ESE,6.9,-,N/A,,Overcast,120,2013-12-03 22:55:00
6:15 PM,-9999,-9999,N/A,29.78,2.5,SE,6.9,-,N/A,,Overcast,140,2013-12-03 23:15:00
6:35 PM,-9999,-9999,N/A,29.79,2.5,SE,4.6,-,N/A,,Overcast,130,2013-12-03 23:35:00
6:55 PM,-9999,-9999,N/A,29.78,2.0,ESE,8.1,-,N/A,,Overcast,120,2013-12-03 23:55:00
7:15 PM,-9999,-9999,N/A,29.79,2.0,SE,6.9,-,N/A,,Overcast,130,2013-12-04 00:15:00
7:35 PM,-9999,-9999,N/A,29.79,2.5,ESE,9.2,-,N/A,,Overcast,120,2013-12-04 00:35:00
7:55 PM,-9999,-9999,N/A,29.79,2.5,ESE,8.1,-,N/A,,Overcast,120,2013-12-04 00:55:00
8:15 PM,-9999,-9999,N/A,29.79,3.0,SE,8.1,-,N/A,,Overcast,130,2013-12-04 01:15:00
8:35 PM,-9999,-9999,N/A,29.78,3.0,SE,8.1,-,N/A,,Overcast,140,2013-12-04 01:35:00
8:55 PM,-9999,-9999,N/A,29.79,3.0,SSE,4.6,-,N/A,,Overcast,150,2013-12-04 01:55:00
9:15 PM,-9999,-9999,N/A,29.79,3.0,SSE,6.9,-,N/A,,Overcast,150,2013-12-04 02:15:00
9:35 PM,-9999,-9999,N/A,29.79,3.0,SSE,4.6,-,N/A,,Overcast,160,2013-12-04 02:35:00
9:55 PM,-9999,-9999,N/A,29.79,3.0,SSE,5.8,-,N/A,,Overcast,150,2013-12-04 02:55:00
10:15 PM,-9999,-9999,N/A,29.81,3.0,SSE,3.5,-,N/A,,Mostly Cloudy,150,2013-12-04 03:15:00
10:35 PM,-9999,-9999,N/A,29.81,3.0,SSE,3.5,-,N/A,,Overcast,150,2013-12-04 03:35:00
10:55 PM,-9999,-9999,N/A,29.81,3.0,SSE,4.6,-,N/A,,Overcast,150,2013-12-04 03:55:00
11:15 PM,-9999,-9999,N/A,29.82,2.5,ESE,4.6,-,N/A,,Overcast,120,2013-12-04 04:15:00
11:35 PM,-9999,-9999,N/A,29.83,2.5,Calm,Calm,-,N/A,,Overcast,0,2013-12-04 04:35:00
11:55 PM,-9999,-9999,N/A,29.82,2.5,Calm,Calm,-,N/A,,Overcast,0,2013-12-04 04:55:00